• Em Portugal
  • Lista de países
  • Para 7 dias
  • Temperatura da água
  • Mapas de satélite
  • Mapa do tempo
  • Widgets de tempo
  • user-avatar
    Iniciar Sessão

    Previsão horária em Cuilapa

    Hoje, 23 Agosto, Quarta-feira

    Tempo Temperatura Precipitação Vento Pressão Humidade
    00:00 +22°C° 0,7 mm 1 m/s 686 mmHg 93%
    01:00 +22°C° 0,4 mm 1 m/s 686 mmHg 93%
    02:00 +21°C° 0,4 mm 1 m/s 685 mmHg 93%
    03:00 +21°C° 0,4 mm 1 m/s 685 mmHg 92%
    04:00 +21°C° 0 mm 1 m/s 685 mmHg 92%
    05:00 +21°C° 0 mm 1 m/s 685 mmHg 91%
    06:00 +21°C° 0 mm 1 m/s 685 mmHg 91%
    07:00 +23°C° 0 mm 1 m/s 685 mmHg 82%
    08:00 +26°C° 0 mm 1 m/s 686 mmHg 74%
    09:00 +26°C° 0 mm 0 m/s 687 mmHg 65%
    10:00 +29°C° 0,5 mm 1 m/s 687 mmHg 65%
    11:00 +29°C° 0,5 mm 2 m/s 686 mmHg 65%
    12:00 +30°C° 0,5 mm 2 m/s 686 mmHg 65%
    13:00 +30°C° 1,3 mm 2 m/s 686 mmHg 67%
    14:00 +29°C° 1,3 mm 2 m/s 685 mmHg 68%
    15:00 +29°C° 1,3 mm 3 m/s 684 mmHg 70%
    16:00 +28°C° 1,2 mm 2 m/s 684 mmHg 74%
    17:00 +26°C° 1,2 mm 2 m/s 684 mmHg 79%
    18:00 +25°C° 1,2 mm 1 m/s 684 mmHg 83%
    19:00 +24°C° 1,4 mm 1 m/s 684 mmHg 85%
    20:00 +24°C° 1,4 mm 1 m/s 684 mmHg 86%
    21:00 +23°C° 1,4 mm 1 m/s 685 mmHg 87%
    22:00 +23°C° 1,1 mm 1 m/s 685 mmHg 88%
    23:00 +23°C° 1,1 mm 1 m/s 685 mmHg 88%

    Amanhã, 24 Agosto, Quinta-feira

    Tempo Temperatura Precipitação Vento Pressão Humidade
    00:00 +23°C° 1,1 mm 1 m/s 685 mmHg 88%
    01:00 +22°C° 0,8 mm 1 m/s 684 mmHg 89%
    02:00 +22°C° 0,8 mm 1 m/s 684 mmHg 89%
    03:00 +22°C° 0,8 mm 1 m/s 683 mmHg 89%
    04:00 +22°C° 0,1 mm 1 m/s 683 mmHg 89%
    05:00 +21°C° 0,1 mm 1 m/s 683 mmHg 89%
    06:00 +21°C° 0,1 mm 1 m/s 684 mmHg 89%
    07:00 +24°C° 0 mm 1 m/s 684 mmHg 82%
    08:00 +26°C° 0 mm 1 m/s 685 mmHg 74%
    09:00 +26°C° 0 mm 0 m/s 686 mmHg 67%
    10:00 +29°C° 0,6 mm 1 m/s 685 mmHg 66%
    11:00 +29°C° 0,6 mm 1 m/s 685 mmHg 65%
    12:00 +30°C° 0,6 mm 2 m/s 685 mmHg 64%
    13:00 +30°C° 1,2 mm 2 m/s 684 mmHg 66%
    14:00 +29°C° 1,2 mm 3 m/s 684 mmHg 68%
    15:00 +29°C° 1,2 mm 3 m/s 683 mmHg 71%
    16:00 +28°C° 1,4 mm 2 m/s 683 mmHg 76%
    17:00 +26°C° 1,4 mm 2 m/s 683 mmHg 81%
    18:00 +25°C° 1,4 mm 1 m/s 683 mmHg 86%
    19:00 +24°C° 2,4 mm 1 m/s 683 mmHg 88%
    20:00 +24°C° 2,4 mm 1 m/s 684 mmHg 91%
    21:00 +21°C° 2,4 mm 0 m/s 684 mmHg 94%
    22:00 +21°C° 2,2 mm 0 m/s 684 mmHg 94%
    23:00 +23°C° 2,2 mm 1 m/s 684 mmHg 95%

    Depois de amanhã, 25 Agosto, Sexta-feira

    Tempo Temperatura Precipitação Vento Pressão Humidade
    00:00 +23°C° 2,2 mm 1 m/s 684 mmHg 95%
    01:00 +22°C° 1,3 mm 1 m/s 684 mmHg 94%
    02:00 +20°C° 1,3 mm 0 m/s 684 mmHg 94%
    03:00 +20°C° 1,3 mm 0 m/s 683 mmHg 94%
    04:00 +20°C° 1 mm 0 m/s 684 mmHg 94%
    05:00 +20°C° 1 mm 0 m/s 684 mmHg 94%
    06:00 +20°C° 1 mm 0 m/s 684 mmHg 95%
    07:00 +21°C° 0,6 mm 0 m/s 685 mmHg 93%
    08:00 +21°C° 0,6 mm 0 m/s 685 mmHg 91%
    09:00 +22°C° 0,6 mm 0 m/s 686 mmHg 90%
    10:00 +23°C° 0,7 mm 0 m/s 686 mmHg 85%
    11:00 +26°C° 0,7 mm 1 m/s 686 mmHg 80%
    12:00 +28°C° 0,7 mm 1 m/s 686 mmHg 76%
    13:00 +27°C° 1,2 mm 1 m/s 685 mmHg 77%
    14:00 +27°C° 1,2 mm 2 m/s 684 mmHg 78%
    15:00 +27°C° 1,2 mm 2 m/s 684 mmHg 80%
    16:00 +26°C° 1,2 mm 2 m/s 684 mmHg 83%
    17:00 +25°C° 1,2 mm 1 m/s 684 mmHg 86%
    18:00 +24°C° 1,2 mm 1 m/s 684 mmHg 89%
    19:00 +23°C° 1,3 mm 1 m/s 685 mmHg 90%
    20:00 +23°C° 1,3 mm 1 m/s 685 mmHg 91%
    21:00 +23°C° 1,3 mm 1 m/s 686 mmHg 92%
    22:00 +22°C° 0,4 mm 1 m/s 686 mmHg 92%
    23:00 +22°C° 0,4 mm 1 m/s 686 mmHg 91%

    26 Agosto, Sábado

    Tempo Temperatura Precipitação Vento Pressão Humidade
    00:00 +22°C° 0,4 mm 1 m/s 686 mmHg 91%
    01:00 +22°C° 0,5 mm 1 m/s 685 mmHg 91%
    02:00 +22°C° 0,5 mm 1 m/s 685 mmHg 91%
    03:00 +21°C° 0,5 mm 1 m/s 684 mmHg 91%
    04:00 +21°C° 0,2 mm 1 m/s 684 mmHg 91%
    05:00 +21°C° 0,2 mm 1 m/s 685 mmHg 90%
    06:00 +21°C° 0,2 mm 1 m/s 685 mmHg 90%
    07:00 +23°C° 0 mm 1 m/s 685 mmHg 84%
    08:00 +24°C° 0 mm 1 m/s 686 mmHg 79%
    09:00 +26°C° 0 mm 1 m/s 687 mmHg 74%
    10:00 +26°C° 0,4 mm 2 m/s 686 mmHg 74%
    11:00 +26°C° 0,4 mm 2 m/s 686 mmHg 74%
    12:00 +27°C° 0,4 mm 2 m/s 686 mmHg 74%
    13:00 +27°C° 0,6 mm 2 m/s 685 mmHg 74%
    14:00 +27°C° 0,6 mm 2 m/s 685 mmHg 74%
    15:00 +27°C° 0,6 mm 3 m/s 684 mmHg 74%
    16:00 +26°C° 0,8 mm 2 m/s 684 mmHg 79%
    17:00 +25°C° 0,8 mm 2 m/s 684 mmHg 83%
    18:00 +24°C° 0,8 mm 2 m/s 685 mmHg 87%
    19:00 +23°C° 0,6 mm 2 m/s 685 mmHg 89%
    20:00 +23°C° 0,6 mm 1 m/s 685 mmHg 90%
    21:00 +22°C° 0,6 mm 1 m/s 685 mmHg 92%
    22:00 +22°C° 0,1 mm 1 m/s 685 mmHg 92%
    23:00 +22°C° 0,1 mm 1 m/s 685 mmHg 91%

    27 Agosto, Domingo

    Tempo Temperatura Precipitação Vento Pressão Humidade
    00:00 +21°C° 0,1 mm 1 m/s 685 mmHg 91%
    01:00 +21°C° 0 mm 1 m/s 685 mmHg 91%
    02:00 +21°C° 0 mm 1 m/s 684 mmHg 90%
    03:00 +21°C° 0 mm 1 m/s 684 mmHg 90%
    04:00 +21°C° 0 mm 1 m/s 684 mmHg 89%
    05:00 +21°C° 0 mm 1 m/s 684 mmHg 89%
    06:00 +21°C° 0 mm 1 m/s 685 mmHg 88%
    07:00 +23°C° 0 mm 1 m/s 685 mmHg 81%
    08:00 +25°C° 0 mm 1 m/s 686 mmHg 73%
    09:00 +27°C° 0 mm 1 m/s 687 mmHg 66%
    10:00 +28°C° 0,2 mm 2 m/s 686 mmHg 66%
    11:00 +28°C° 0,2 mm 2 m/s 686 mmHg 65%
    12:00 +29°C° 0,2 mm 3 m/s 686 mmHg 64%
    13:00 +29°C° 0,9 mm 3 m/s 685 mmHg 67%
    14:00 +28°C° 0,9 mm 3 m/s 685 mmHg 70%
    15:00 +28°C° 0,9 mm 3 m/s 684 mmHg 73%
    16:00 +27°C° 0,8 mm 2 m/s 684 mmHg 77%
    17:00 +26°C° 0,8 mm 2 m/s 684 mmHg 81%
    18:00 +25°C° 0,8 mm 1 m/s 684 mmHg 85%
    19:00 +24°C° 0,4 mm 1 m/s 684 mmHg 87%
    20:00 +23°C° 0,4 mm 1 m/s 684 mmHg 90%
    21:00 +22°C° 0,4 mm 1 m/s 685 mmHg 92%
    22:00 +22°C° 0 mm 1 m/s 685 mmHg 92%
    23:00 +21°C° 0 mm 1 m/s 685 mmHg 92%

    28 Agosto, Segunda-feira

    Tempo Temperatura Precipitação Vento Pressão Humidade
    00:00 +21°C° 0 mm 1 m/s 685 mmHg 93%
    01:00 +21°C° 0 mm 1 m/s 684 mmHg 92%
    02:00 +21°C° 0 mm 1 m/s 684 mmHg 91%
    03:00 +20°C° 0 mm 1 m/s 684 mmHg 90%
    04:00 +20°C° 0 mm 1 m/s 684 mmHg 89%
    05:00 +20°C° 0 mm 1 m/s 684 mmHg 87%
    06:00 +20°C° 0 mm 1 m/s 684 mmHg 86%
    07:00 +23°C° 0 mm 1 m/s 685 mmHg 78%
    08:00 +25°C° 0 mm 1 m/s 685 mmHg 70%
    09:00 +28°C° 0 mm 1 m/s 686 mmHg 61%
    10:00 +29°C° 0 mm 1 m/s 686 mmHg 57%
    11:00 +30°C° 0 mm 2 m/s 685 mmHg 53%
    12:00 +31°C° 0 mm 2 m/s 685 mmHg 49%
    13:00 +30°C° 0,3 mm 3 m/s 685 mmHg 55%
    14:00 +30°C° 0,3 mm 3 m/s 684 mmHg 60%
    15:00 +29°C° 0,3 mm 3 m/s 684 mmHg 65%
    16:00 +28°C° 0,4 mm 2 m/s 684 mmHg 71%
    17:00 +26°C° 0,4 mm 2 m/s 684 mmHg 78%
    18:00 +25°C° 0,4 mm 1 m/s 684 mmHg 84%
    19:00 +24°C° 0,5 mm 1 m/s 684 mmHg 87%
    20:00 +23°C° 0,5 mm 1 m/s 685 mmHg 90%
    21:00 +22°C° 0,5 mm 1 m/s 685 mmHg 93%
    22:00 +22°C° 0,2 mm 1 m/s 685 mmHg 93%
    23:00 +21°C° 0,2 mm 1 m/s 685 mmHg 93%
    Mostrar mais